Date,TemperatureHighF,TemperatureAvgF,TemperatureLowF,DewpointHighF,DewpointAvgF,DewpointLowF,HumidityHigh,HumidityAvg,HumidityLow,PressureMaxIn,PressureMinIn,WindSpeedMaxMPH,WindSpeedAvgMPH,GustSpeedMaxMPH,PrecipitationSumIn
2013-6-1,87.0,75.6,60.0,41.0,34.9,32.0,46,24,13,29.15,29.00,8,1,8,0.00
2013-6-2,83.0,69.7,64.0,51.8,41.5,32.0,57,37,19,29.06,28.94,4,0,5,0.20
2013-6-3,80.0,70.7,63.0,59.0,44.1,32.0,68,41,14,29.03,28.91,8,1,8,0.12
2013-6-4,80.0,70.2,58.0,39.2,34.1,32.0,46,26,14,29.18,29.03,7,1,8,0.00
2013-6-5,75.0,67.9,60.0,42.8,34.1,32.0,44,28,19,29.21,29.09,5,0,6,0.00
2013-6-6,66.0,62.9,59.0,57.2,48.4,35.6,73,59,33,29.09,28.85,5,1,8,2.09
2013-6-7,71.0,67.0,63.0,60.8,58.0,55.4,76,71,62,28.91,28.67,4,0,5,0.16
2013-6-8,78.0,67.9,60.0,57.2,46.7,32.0,72,49,18,29.15,28.85,5,0,7,0.12
2013-6-9,83.0,73.0,62.0,50.0,39.8,32.0,55,33,16,29.21,29.09,8,1,8,0.16
2013-6-10,77.0,69.5,66.0,64.4,58.4,48.2,78,67,49,29.12,28.88,7,1,11,0.67
2013-6-11,81.0,71.7,63.0,66.2,59.7,53.6,81,66,45,29.00,28.91,8,1,13,0.16
2013-6-12,88.0,77.1,63.0,57.2,46.2,32.0,68,38,15,29.00,28.88,6,1,8,0.00
2013-6-13,88.0,74.0,66.0,57.2,46.1,32.0,64,40,13,28.91,28.64,18,1,24,0.31
2013-6-14,77.0,72.3,66.0,42.8,33.4,32.0,36,19,15,29.03,28.88,7,2,10,0.00
2013-6-15,82.0,77.6,67.0,33.8,32.0,32.0,26,16,14,29.18,29.06,6,1,8,0.00
2013-6-16,86.0,79.8,69.0,41.0,33.7,32.0,34,18,13,29.12,29.00,4,1,8,0.00
2013-6-17,83.0,73.7,66.0,51.8,41.8,32.0,53,34,16,29.06,28.97,5,0,9,0.12
2013-6-18,75.0,69.4,65.0,59.0,47.6,32.0,65,46,22,29.00,28.85,6,0,8,0.43
2013-6-19,79.0,69.4,61.0,50.0,40.7,32.0,57,37,17,29.18,28.97,6,1,8,0.16
2013-6-20,78.0,68.9,64.0,53.6,42.6,32.0,63,42,21,29.29,29.18,5,1,7,0.00
2013-6-21,81.0,71.9,59.0,44.6,33.5,32.0,45,23,14,29.32,29.23,5,1,8,0.00
2013-6-22,84.0,72.5,58.0,42.8,34.7,32.0,46,26,14,29.32,29.18,8,1,10,0.00
2013-6-23,87.0,77.0,67.0,50.0,38.4,32.0,48,27,13,29.23,29.15,4,0,7,0.00
2013-6-24,86.0,76.3,66.0,48.2,39.9,32.0,48,29,13,29.23,29.12,4,0,5,0.00
2013-6-25,90.0,78.6,67.0,48.2,38.7,32.0,46,26,12,29.15,29.03,5,0,7,0.00
2013-6-26,90.0,75.1,68.0,53.6,42.1,32.0,58,34,13,29.06,28.94,9,0,19,0.24
2013-6-27,84.0,74.1,67.0,55.4,42.2,32.0,62,34,16,28.97,28.76,5,0,7,0.00
2013-6-28,89.0,78.5,68.0,46.4,36.4,32.0,40,22,13,28.79,28.59,6,1,8,0.00
2013-6-29,84.0,73.9,64.0,57.2,36.1,32.0,74,27,14,28.79,28.64,9,1,12,1.77
2013-6-30,82.0,71.3,64.0,71.6,62.8,57.2,82,74,66,28.94,28.76,10,1,14,0.00